Regional Weather Roundup
Issued by NWS Wakefield, VA

Home | Current Version | Previous Version | Text Only | Print | Product List | Glossary Off
Versions: 1 2 3 4 5 6 7 8 9 10 11 12 13 14 15 16 17 18 19 20 21 22 23 24 25 26 27

000
ASUS41 KAKQ 220515
RWRAKQ

REGIONAL WEATHER ROUNDUP
NATIONAL WEATHER SERVICE WAKEFIELD VA
100 AM EDT MON MAY 22 2017

Note: "fair" indicates few or no clouds below 12,000 feet with no
significant weather and/or obstructions to visibility. * = Denotes
station may not report precipitation (e.g., rain,snow,etc.),
thunder or fog.

VAZ042-051-052>054-056-220600-
NORTHERN VIRGINIA

CITY           SKY/WX    TMP DP  RH WIND       PRES   REMARKS
WASH NATIONAL  CLOUDY    63  53  70 S5        30.17F
DULLES         CLOUDY    61  51  70 S5        30.16F
FORT BELVOIR   CLOUDY    62  52  69 CALM      30.16F
QUANTICO       NOT AVBL
FREDERICKSBRG* CLOUDY    63  53  71 CALM      30.15F
STAFFORD*      CLOUDY    60  52  75 CALM      30.20F
WARRENTON      CLOUDY    60  55  83 CALM      30.16F
CULPEPER*      CLOUDY    59  58  95 CALM      30.17F
MANASSAS*        N/A     61  53  75 CALM      30.17F
LEESBURG*      CLOUDY    63  55  77 S5        30.18F
WINCHESTER     CLOUDY    55  52  88 S5        30.15F
FRONT ROYAL*   CLOUDY    59  57  94 CALM      30.14S
LURAY*         CLOUDY    61  61 100 CALM      30.15F
$$

VAZ048-049-060>072-079>083-220600-
CENTRAL AND SOUTH CENTRAL VIRGINIA

CITY           SKY/WX    TMP DP  RH WIND       PRES   REMARKS
RICHMOND       CLOUDY    62  56  80 E6        30.14F
CHESTERFIELD*  CLOUDY   N/A N/A N/A NE3       30.15F
PETERSBURG*    LGT RAIN  61  57  86 CALM      30.14F
HANOVER        CLOUDY    62  52  69 CALM      30.15F
TAPPAHANNOCK*  CLOUDY    63  51  65 CALM      30.16F
QUINTON*       CLOUDY    61  58  89 MISG      30.15F
CHARLOTTSVILLE CLOUDY    62  59  90 CALM      30.15F
GORDONSVILLE*  CLOUDY    60  59  98 CALM      30.14F
ORANGE*        CLOUDY    59  55  88 CALM      30.15F
LOUISA*        DRIZZLE   63  61  94 CALM      30.14F
BUMPASS*       CLOUDY    61  54  78 S3        30.15F
FARMVILLE*     LGT RAIN  64  64 100 CALM      30.13F
CREWE*         MOCLDY    61  57  87 CALM      30.14F
FORT PICKETT*  CLOUDY    61  57  88 CALM      30.14F
CHASE CITY*    CLOUDY    63  61  94 CALM      30.13F
CLARKSVILLE*   CLOUDY    64  64 100 E3        30.12F
SOUTH HILL*    CLOUDY    62  59  91 CALM      30.19F
LAWRENCEVILLE* CLOUDY    62  58  88 CALM      30.14F
EMPORIA*       CLOUDY    61  57  88 CALM      30.15F
$$

VAZ088>098-220600-
SOUTHEAST VIRGINIA

CITY           SKY/WX    TMP DP  RH WIND       PRES   REMARKS
NORFOLK        CLOUDY    65  61  87 CALM      30.14F
VIRGINIA BEACH NOT AVBL
NORFOLK NAVAL  CLOUDY    65  61  87 E5        30.15F
WEST POINT*    CLOUDY    63  58  85 E5        30.16F
SALUDA*        CLOUDY    63  61  94 E6        30.14F
NEWPORT NEWS   CLOUDY    64  60  87 E3        30.14F
LANGLEY AFB    MOCLDY    64  63  94 E6        30.12F
FORT EUSTIS    CLOUDY    65  60  83 CALM      30.12F
WILLIAMSBURG*  CLOUDY    66  61  82 CALM      30.15F
HR EXEC AP*    CLOUDY    64  57  77 E3        30.12F
FRANKLIN*      CLOUDY    63  58  84 E3        30.14F
US460-WAKEFLD  CLOUDY    63  60  90 CALM      30.13F
$$

VAZ020-022-025-037-045-220600-
WEST CENTRAL AND SOUTHWEST VIRGINIA

CITY           SKY/WX    TMP DP  RH WIND       PRES   REMARKS
STAUNTON*      CLOUDY    59  57  94 SE3       30.17F
WAYNESBORO*    CLOUDY    58  58 100 S8        30.16F
HOT SPRINGS VA RAIN      46  45  93 S8        30.19F VSB<1/4
LYNCHBURG      LGT RAIN  60  58  92 N5        30.16F
DANVILLE       LGT RAIN  62  62 100 NE7       30.12F
SOUTH BOSTON*  CLOUDY    63  62  94 CALM      30.12F
MARTINSVILLE   DRIZZLE   60  59  96 N3        30.15F
ROANOKE        LGT RAIN  60  59  96 CALM      30.16F
BLACKSBURG     RAIN      58  57  95 E3        30.18F
DUBLIN*        HVY RAIN  59  56  91 E6        30.17F
MARION*        CLOUDY    62  59  91 NE8       30.17F
HILLSVILLE*    HVY RAIN  57  57 100 CALM      30.15F
RICHLANDS*     FAIR      60  60  98 SE3       30.13S
WISE*          NOT AVBL
ABINGDON*      MOCLDY    63  63  99 E3        30.11F
$$

MDZ021>025-VAZ099-100-220600-
SOUTHERN MARYLAND AND THE DELMARVA PENINSULA

CITY           SKY/WX    TMP DP  RH WIND       PRES   REMARKS
PATUXENT RIVER CLOUDY    60  60 100 E7        30.16F FOG
BAY BRIDGE APT   N/A     59  52  77 E3        30.18F
LEONARDTOWN    CLOUDY    61  54  77 E6        30.17F
DOVER          CLOUDY    59  59 100 SE7       30.17F
GEORGETOWN     CLOUDY    60  54  80 SE7       30.18F
EASTON         CLOUDY    60  53  76 CALM      30.21F
CAMBRIDGE      CLOUDY    59  54  82 E6        30.17F
SALISBURY      CLOUDY    60  56  86 E8        30.16F
OCEAN CITY     CLOUDY    59  56  89 SE7       30.19F
WALLOPS ISLAND CLOUDY    61  59  93 E8        30.17F
ACCOMACK*      CLOUDY    62  11  13 E6        30.15F
$$

NCZ012>017-030>032-220600-
NORTH CENTRAL AND EASTERN NORTH CAROLINA

CITY           SKY/WX    TMP DP  RH WIND       PRES   REMARKS
ROANOKE RAPIDS MOCLDY    64  61  88 CALM      30.13F
RALEIGH        CLOUDY    70  64  81 SE8       30.12F
ELIZABETH CITY PTCLDY    65  65 100 E5        30.12F
AHOSKIE*         N/A     64  61  91 CALM      30.14S
EDENTON*       CLOUDY    66  62  86 CALM      30.13F
CURRITUCK*     PTCLDY    65  65 100 CALM      30.14F
KILL DEVIL HLS NOT AVBL
MANTEO         MOCLDY    70  67  89 SE8       30.14F
CAPE HATTERAS  PTCLDY    72  67  84 SE12      30.13F
TARBORO*       NOT AVBL
GOLDSBORO      MOCLDY    68  68 100 CALM      30.12R
WASHINGTON     CLOUDY    65  64  94 CALM      30.12F
GREENVILLE     CLOUDY    64  64 100 E5        30.13F
NEW BERN       CLOUDY    70  69  97 E3        30.13F
WILMINGTON     CLOUDY    73  69  87 VRB6      30.12F
$$

VAZ048-220600-
ELSEWHERE

CITY           SKY/WX    TMP DP  RH WIND       PRES   REMARKS
HARRISBURG PA  CLOUDY    58  52  80 SE13      30.17F
BALTIMORE      CLOUDY    59  53  80 E8        30.17F
ANNAPOLIS      NOT AVBL
ANDREWS AFB    CLOUDY    60  51  72 E5        30.16F
PHILADELPHIA   CLOUDY    58  49  72 SE5       30.22F
HENDERSON NC   MOCLDY    63  60  90 CALM      30.13S
GREENSBORO     CLOUDY    64  64 100 E9        30.09F
ROCKY MOUNT    MOCLDY    67  65  93 CALM      30.13F
$$

VAZ100-220600-
MARINE

STATION/POSITION TIME  TEMP    WIND        PRES    WAVE   SWELL
                       AIR SEA DIR/SP/G            HT/PER HT/PER
                 (UTC) (F)     (DEG/KT/KT) (MB)    (FT/S) (FT/S)
CAPE MAY NJ      0448   58 60  110/  8/ 12 1021.8F
LEWES DE         0442   59 62  140/  5/  8 1022.1F
15NM E FENWICK I 0450   58 57   80/ 10/ 14 1022.4F   4/ 7   3/ 7
OCEAN-CITY-INLET 0442   59 63  140/  6/  7 1022.5F
WACHAPREAGUE VA  0448   61 68   80/  7/ 10 1020.7F
THOMAS POINT MD  0500   60 66  120/  8/  9   N/A
GOOSES REEF MD   0450   62     150/  6/  8 1022.3F
COVE POINT MD    0442   61     140/  6/  8 1022.3F
SOLOMONS ISLAND  0442   62 67  120/ 10/ 11   N/A
BISHOPS HEAD MD  0442   62 69   90/ 11/ 13 1021.5F
PINEY POINT MD   0448          130/  9/ 10   N/A
POTOMAC MD       0450   63     120/  8/ 10 1020.4F
CAMBRIDGE MD     0442   60 69                N/A
LEWISETTA VA     0448   63 71  130/  6/  8 1021.0F
RAPPAHANNOCK LGT 0448          110/ 11/ 12 1021.3F
STINGRAY PT      0450   64     140/  8/ 10 1020.9F
YORK RVR RNG VA  0448   64     120/ 10/ 11 1019.9F
YORKTOWN VA      0448   65 69   90/  8/  9 1020.3F
JAMESTOWN VA     0450   64      90/  4/  6   N/A
DOMINION TERM VA 0448   65     110/  4/  7 1020.4F
KIPTOPEKE VA     0448      65   90/  8/ 10   N/A
CHES BAY BRIDGE  0448   64 67   80/  4/  5 1020.4F
CAPE HENRY VA    0448   64     130/  9/ 12   N/A
WILLOUBY STN VA  0448   63      70/  6/  7 1020.3F
S CRANEY ISL VA  0448   64      80/  3/  4 1020.4F
CAPE HENRY BUOY  0442      61                N/A     4/ 6
1ST LANDING BUOY 0450   63                 1021.0F
CAPE CHARLES BUO 0451      62                N/A     4/ 7
64NM E OF VA BCH 0450   70 69  140/ 10/ 12 1021.5F   5/10   5/10
DUCK PIER NC     0448   66 66  130/  7/  9 1020.0F
44100 DUCK FRF   0435      65                N/A     4/ 7   2/11
44056 DUCK FRF   0430      65                N/A     4/ 7
OREGON INLET NC  0442   67 69   90/  3/  5 1020.5F
HATTERAS NC      0448   73 75  110/  9/ 12 1019.8F
DIAMOND SHLS NC  0450   76 79  120/ 17/ 19 1019.7F   5/ 8   3/ 8
CAPE LOOKOUT NC  0400   72      90/  4/  5 1019.9F
$$




USA.gov is the U.S. government's official web portal to all federal, state and local government web resources and services.